STARLINK-4727 (53803 NORAD) Tracking and Keplerian Element Data

This shows tracking and keplerian element data for the satellite.

Feedback or suggestion? Click here.




ElementValue
Catalog53803
NameSTARLINK-4727
Epoch Orbit130
Epoch Day324.91667824
Epoch Year2022
RAAN276.4245
Inclination53.215
Eccentricity0.0003723
Argument of Perigee6.1618
Mean Anonmoly274.1212
Mean Motion15.73220685
Decay Rate-0.00070019
L11 53803U 22111AG 22324.91667824 -.00070019 00000+0 -49793-3 0 9995
L22 53803 53.2150 276.4245 0003723 6.1618 274.1212 15.73220685 1306



Live tracking and technical data element details for STARLINK-4727 (NORAD 53803). STARLINK-4727 can be tracked NOW for your location showing map with azimuth and elevation plus other details from your city location.







IsCatalogInMostPopularTable: catalog: 53803, numindb: -1

Insert: records affected: 1


GetName: 53803 STARLINK-4727

Hit Count: inserted at: Thu, 08 Dec 2022 08:51:36 GMT